Weather History for Wasilla, AK

Change the Weather History Date:

Monday, June 17, 2013

  Actual Average Record
Temperature  
Mean Temperature 66 °F -  
Max Temperature 82 °F 66 °F 82 °F (2013)
Min Temperature 51 °F 42 °F 35 °F (1972)
Cooling Degree Days 2    
Growing Degree Days 16 (Base 50)    
Moisture  
Dew Point 52 °F    
Average Humidity 56    
Maximum Humidity 82    
Minimum Humidity 37    
Precipitation  
Precipitation 0.00 in - - ()
Sea Level Pressure  
Sea Level Pressure 30.01 in    
Wind  
Wind Speed 2 mph (SSE)    
Max Wind Speed 10 mph    
Max Gust Speed -    
Visibility 10 miles    
Events      
Averages and records for this station are not official NWS values.
T = Trace of Precipitation, MM = Missing Value Source: NWS Daily Summary

Daily Weather History Graph

Daily Weather History Graph

Search for Another Location

Airport:

Trip Planner

Search our weather history database for the weather conditions in past years. The results will help you decide how hot, cold, wet, or windy it might be!

Date:

Astronomy

Jun. 17, 2013 Rise Set
Actual Time 4:13 AM AKDT 11:44 PM AKDT
Civil Twilight 2:31 AM AKDT 1:26 AM AKDT
Nautical Twilight Sun does not rise Sun does not rise
Astronomical Twilight Sun does not rise Sun does not rise
Moon 3:52 PM AKDT (6/17) 1:48 AM AKDT (6/17)
Length of Visible Light 22h 55m
Length of Day
19h 31m
First Quarter, 62% of the Moon is Illuminated
Jun 17
First Quarter
Jun 23
Full
Jun 29
Last Quarter
Jul 7
New
Jul 15
First Quarter

Hourly Weather History & Observations

Time (AKDT) Temp. Heat Index Dew Point Humidity Pressure Visibility Wind Dir Wind Speed Gust Speed Precip Events Conditions
12:16 AM 64.4 °F - 50.0 °F 59% 30.12 in 10.0 mi ENE 3.5 mph - N/A   Clear
12:36 AM 62.6 °F - 51.8 °F 68% 30.12 in 10.0 mi Calm Calm - N/A   Clear
12:56 AM 60.8 °F - 51.8 °F 72% 30.12 in 10.0 mi ENE 3.5 mph - N/A   Clear
1:16 AM 60.8 °F - 50.0 °F 68% 30.12 in 10.0 mi Calm Calm - N/A   Clear
1:36 AM 57.2 °F - 48.2 °F 72% 30.12 in 10.0 mi Calm Calm - N/A   Clear
1:56 AM 57.2 °F - 48.2 °F 72% 30.12 in 10.0 mi Calm Calm - N/A   Clear
2:16 AM 57.2 °F - 48.2 °F 72% 30.12 in 10.0 mi Calm Calm - N/A   Clear
2:36 AM 55.4 °F - 48.2 °F 77% 30.12 in 10.0 mi Calm Calm - N/A   Clear
2:56 AM 53.6 °F - 48.2 °F 82% 30.12 in 10.0 mi Calm Calm - N/A   Clear
3:16 AM 55.4 °F - 46.4 °F 72% 30.12 in 10.0 mi Calm Calm - N/A   Clear
3:36 AM 53.6 °F - 46.4 °F 77% 30.12 in 10.0 mi Calm Calm - N/A   Clear
3:56 AM 53.6 °F - 46.4 °F 77% 30.12 in 10.0 mi NE 3.5 mph - N/A   Clear
4:16 AM 53.6 °F - 46.4 °F 77% 30.12 in 10.0 mi Calm Calm - N/A   Clear
4:36 AM 53.6 °F - 46.4 °F 77% 30.11 in 10.0 mi Calm Calm - N/A   Clear
4:56 AM 51.8 °F - 46.4 °F 82% 30.11 in 10.0 mi Calm Calm - N/A   Clear
5:16 AM 53.6 °F - 46.4 °F 77% 30.11 in 10.0 mi Calm Calm - N/A   Clear
5:36 AM 53.6 °F - 46.4 °F 77% 30.11 in 10.0 mi Calm Calm - N/A   Clear
5:56 AM 55.4 °F - 46.4 °F 72% 30.11 in 10.0 mi Calm Calm - N/A   Clear
6:16 AM 55.4 °F - 48.2 °F 77% 30.11 in 10.0 mi Calm Calm - N/A   Clear
6:36 AM 57.2 °F - 50.0 °F 77% 30.11 in 10.0 mi Calm Calm - N/A   Clear
6:56 AM 59.0 °F - 51.8 °F 77% 30.11 in 10.0 mi Calm Calm - N/A   Clear
7:16 AM 59.0 °F - 50.0 °F 72% 30.10 in 10.0 mi Calm Calm - N/A   Clear
7:36 AM 60.8 °F - 51.8 °F 72% 30.10 in 10.0 mi Calm Calm - N/A   Clear
7:56 AM 62.6 °F - 51.8 °F 68% 30.10 in 10.0 mi Calm Calm - N/A   Clear
8:16 AM 64.4 °F - 48.2 °F 56% 30.09 in 10.0 mi Calm Calm - N/A   Clear
8:36 AM 68.0 °F - 50.0 °F 52% 30.09 in 10.0 mi Calm Calm - N/A   Clear
8:56 AM 66.2 °F - 50.0 °F 56% 30.09 in 10.0 mi Calm Calm - N/A   Clear
9:16 AM 69.8 °F - 50.0 °F 49% 30.08 in 10.0 mi Calm Calm - N/A   Clear
9:36 AM 69.8 °F - 50.0 °F 49% 30.08 in 10.0 mi Calm Calm - N/A   Clear
9:56 AM 69.8 °F - 51.8 °F 53% 30.08 in 10.0 mi Calm Calm - N/A   Clear
10:16 AM 71.6 °F - 51.8 °F 50% 30.07 in 10.0 mi Calm Calm - N/A   Clear
10:36 AM 71.6 °F - 51.8 °F 50% 30.06 in 10.0 mi WSW 3.5 mph - N/A   Clear
10:56 AM 73.4 °F - 51.8 °F 47% 30.06 in 10.0 mi WSW 3.5 mph - N/A   Clear
11:16 AM 73.4 °F - 53.6 °F 50% 30.05 in 10.0 mi Calm Calm - N/A   Clear
11:36 AM 73.4 °F - 53.6 °F 50% 30.04 in 10.0 mi SE 4.6 mph - N/A   Clear
11:56 AM 73.4 °F - 55.4 °F 53% 30.03 in 10.0 mi SSE 5.8 mph - N/A   Clear
12:16 PM 73.4 °F - 55.4 °F 53% 30.03 in 10.0 mi SE 6.9 mph - N/A   Clear
12:36 PM 73.4 °F - 53.6 °F 50% 30.02 in 10.0 mi SSE 6.9 mph - N/A   Clear
12:56 PM 75.2 °F - 53.6 °F 47% 30.02 in 10.0 mi South 6.9 mph - N/A   Clear
1:16 PM 75.2 °F - 53.6 °F 47% 30.01 in 10.0 mi SSE 6.9 mph - N/A   Clear
1:36 PM 77.0 °F - 55.4 °F 47% 30.01 in 10.0 mi South 5.8 mph - N/A   Clear
1:56 PM 77.0 °F - 53.6 °F 44% 30.00 in 10.0 mi SSW 4.6 mph - N/A   Clear
2:16 PM 78.8 °F - 53.6 °F 42% 29.99 in 10.0 mi SSE 5.8 mph - N/A   Clear
2:36 PM 78.8 °F - 53.6 °F 42% 29.98 in 10.0 mi SE 6.9 mph - N/A   Clear
2:56 PM 78.8 °F - 53.6 °F 42% 29.98 in 10.0 mi SSE 8.1 mph - N/A   Clear
3:16 PM 78.8 °F - 53.6 °F 42% 29.97 in 10.0 mi SE 8.1 mph - N/A   Clear
3:36 PM 78.8 °F - 53.6 °F 42% 29.96 in 10.0 mi SE 10.4 mph - N/A   Clear
3:56 PM 80.6 °F 80.3 °F 53.6 °F 39% 29.96 in 10.0 mi SE 8.1 mph - N/A   Clear
4:16 PM 80.6 °F 80.3 °F 53.6 °F 39% 29.95 in 10.0 mi South 8.1 mph - N/A   Clear
4:36 PM 80.6 °F 80.3 °F 53.6 °F 39% 29.94 in 10.0 mi SE 5.8 mph - N/A   Clear
4:56 PM 80.6 °F 80.5 °F 55.4 °F 42% 29.93 in 10.0 mi South 6.9 mph - N/A   Clear
5:16 PM 80.6 °F 80.3 °F 53.6 °F 39% 29.93 in 10.0 mi South 6.9 mph - N/A   Clear
5:36 PM 82.4 °F 81.7 °F 55.4 °F 39% 29.92 in 10.0 mi SSE 5.8 mph - N/A   Clear
5:56 PM 82.4 °F 81.7 °F 55.4 °F 39% 29.91 in 10.0 mi South 4.6 mph - N/A   Clear
6:16 PM 82.4 °F 81.7 °F 55.4 °F 39% 29.90 in 10.0 mi SSE 4.6 mph - N/A   Clear
6:36 PM 82.4 °F 81.4 °F 53.6 °F 37% 29.90 in 10.0 mi SE 5.8 mph - N/A   Clear
6:56 PM 82.4 °F 81.7 °F 55.4 °F 39% 29.90 in 10.0 mi South 3.5 mph - N/A   Clear
7:16 PM 82.4 °F 81.4 °F 53.6 °F 37% 29.89 in 10.0 mi South 3.5 mph - N/A   Clear
7:36 PM 82.4 °F 81.7 °F 55.4 °F 39% 29.89 in 10.0 mi SSE 4.6 mph - N/A   Clear
7:56 PM 82.4 °F 81.7 °F 55.4 °F 39% 29.88 in 10.0 mi South 3.5 mph - N/A   Clear
8:16 PM 82.4 °F 81.7 °F 55.4 °F 39% 29.88 in 10.0 mi Calm Calm - N/A   Clear
8:36 PM 80.6 °F 81.1 °F 59.0 °F 48% 29.88 in 10.0 mi SSE 4.6 mph - N/A   Clear
8:56 PM 78.8 °F - 55.4 °F 44% 29.87 in 10.0 mi South 3.5 mph - N/A   Clear
9:16 PM 77.0 °F - 55.4 °F 47% 29.87 in 10.0 mi South 3.5 mph - N/A   Clear
9:36 PM 75.2 °F - 55.4 °F 50% 29.87 in 10.0 mi Calm Calm - N/A   Clear
9:56 PM 75.2 °F - 53.6 °F 47% 29.87 in 10.0 mi Calm Calm - N/A   Clear
10:16 PM 73.4 °F - 53.6 °F 50% 29.88 in 10.0 mi Calm Calm - N/A   Clear
10:36 PM 73.4 °F - 51.8 °F 47% 29.88 in 10.0 mi Calm Calm - N/A   Clear
10:56 PM 71.6 °F - 53.6 °F 53% 29.87 in 10.0 mi East 3.5 mph - N/A   Clear
11:16 PM 68.0 °F - 53.6 °F 60% 29.88 in 10.0 mi East 3.5 mph - N/A   Clear
11:36 PM 66.2 °F - 53.6 °F 64% 29.88 in 10.0 mi ENE 4.6 mph - N/A   Clear
11:56 PM 64.4 °F - 51.8 °F 64% 29.87 in 10.0 mi Calm Calm - N/A   Clear